Wind_Speed
26 27 27 27 28 29 30 30 30 30 30 31 31 30 29 29 30 31 32 33 33 33 33 34 34 35 36 37 37 37 37 37 37 37 38 38 39 39 39 38 38 37 38 39
27 27 27 28 29 30 30 31 31 31 31 32 32 31 30 30 31 32 33 33 34 34 34 35 35 36 37 38 38 38 38 39 38 38 39 39 40 39 39 38 39 39 39 38
28 27 27 28 29 30 30 31 31 32 32 33 33 33 31 30 31 32 33 33 34 34 35 35 36 37 37 38 38 38 38 40 40 39 39 40 40 39 39 39 39 40 41 41
28 28 29 29 29 30 31 31 32 33 33 34 33 34 31 31 31 32 33 33 33 34 35 35 36 37 38 38 38 38 38 39 40 40 41 41 41 41 41 40 40 41 42 41
28 29 29 30 29 30 31 31 32 33 34 35 33 35 32 31 31 31 32 33 33 33 34 35 36 38 38 38 39 39 38 39 40 40 41 42 42 42 42 42 42 43 42 43
29 30 30 30 30 31 31 31 32 33 34 35 33 35 34 31 31 31 31 32 32 33 33 35 36 37 38 39 39 39 39 39 39 40 41 41 42 43 43 43 44 44 44 45
30 30 31 30 31 31 31 30 32 33 34 35 34 34 33 32 31 31 31 32 32 33 33 34 35 37 38 39 40 40 40 40 41 41 41 42 42 43 43 44 45 45 46 46
30 29 30 31 31 31 30 31 32 34 35 35 35 35 33 32 32 31 31 32 33 34 34 35 36 37 38 39 40 40 40 41 41 41 42 42 43 43 44 45 46 47 47 47
29 29 29 30 31 31 31 31 32 34 36 36 36 34 32 32 33 32 31 32 33 33 34 35 36 37 38 39 39 41 41 41 41 41 42 43 43 44 45 46 46 48 49 49
29 29 28 29 30 30 31 31 32 34 35 36 36 34 32 32 32 33 33 32 33 33 35 36 37 38 39 40 40 41 42 42 42 42 42 42 43 44 45 46 47 48 48 49
28 30 29 29 29 30 30 30 31 33 34 36 37 35 33 33 33 34 35 35 34 34 35 36 38 39 40 41 41 41 42 42 42 42 43 43 44 44 45 47 48 48 48 49
29 31 31 29 30 30 31 32 32 33 34 36 37 36 34 34 34 35 36 37 37 37 37 38 39 40 41 42 42 43 44 43 43 43 44 44 45 45 46 47 48 49 49 50
31 32 32 32 31 32 32 32 33 34 36 36 37 36 35 36 36 37 38 38 39 39 39 40 40 41 42 43 44 45 45 44 44 44 44 45 46 46 47 48 49 50 50 51
33 33 33 33 32 33 33 32 34 35 36 36 36 36 35 36 38 39 39 39 40 40 40 40 41 42 43 44 45 46 46 46 46 45 46 47 47 48 48 49 50 51 52 52
34 35 34 34 33 33 34 34 34 35 35 36 35 35 34 36 38 39 39 39 39 40 41 41 42 43 44 45 46 46 47 47 47 47 47 47 48 49 50 50 50 51 52 53
35 36 35 35 35 35 35 35 34 35 35 36 36 36 35 37 37 38 40 39 39 39 40 42 43 43 44 44 46 47 47 48 48 48 48 48 49 50 50 50 50 51 52 52
34 35 35 35 35 37 36 33 34 34 34 35 36 35 36 37 38 38 39 39 39 40 40 41 42 42 43 44 44 45 46 48 48 49 49 49 49 50 51 52 51 51 51 52
34 34 35 35 35 36 34 33 33 34 34 35 36 36 37 37 37 37 38 39 39 40 40 41 41 42 43 43 44 45 45 47 48 49 50 49 50 50 51 52 52 52 52 52
32 33 33 34 35 36 33 32 32 33 33 34 36 37 37 37 37 36 37 38 39 39 40 41 41 41 42 42 43 43 44 46 47 48 49 50 49 50 51 51 51 51 52 52
32 33 33 34 35 35 33 33 33 34 34 34 35 36 37 37 37 37 37 37 37 39 39 40 41 41 41 41 41 42 43 44 46 47 48 48 49 49 50 51 51 52 52 51
33 34 34 35 36 36 34 33 34 35 34 34 35 35 35 36 37 37 38 38 37 37 37 38 40 40 41 41 41 42 43 44 45 46 47 47 48 48 49 50 51 51 52 52
34 35 36 36 37 35 34 34 34 34 34 35 35 35 36 36 36 37 37 38 38 37 37 37 38 40 41 41 42 42 43 43 44 45 46 47 47 47 48 49 50 50 51 51
35 36 37 37 36 35 35 35 34 34 35 35 35 36 36 36 36 37 37 38 38 38 38 38 38 39 40 41 42 43 43 44 44 44 45 46 47 47 47 48 49 50 51 51
35 35 36 37 36 36 36 36 36 35 35 35 36 37 37 37 37 38 38 38 39 39 39 39 40 40 40 41 41 42 43 44 45 45 46 46 47 47 47 48 48 50 50 51
35 36 36 36 35 36 36 36 36 36 37 37 38 38 38 38 38 39 39 39 39 40 40 40 40 40 40 40 40 41 42 43 43 43 44 45 46 46 46 47 47 48 49 50
34 35 35 35 34 35 35 36 37 37 37 38 38 38 38 38 38 38 38 38 39 40 40 40 40 40 39 39 39 39 40 41 41 41 42 43 43 44 44 45 46 46 47 48
Wind_Direction
267 267 268 269 270 269 269 268 267 265 265 265 264 264 264 264 264 262 261 259 257 256 255 254 254 253 252 252 252 252 252 252 252 253 253 253 254 253 253 251 251 251 249 249
266 267 269 270 270 270 269 268 267 265 265 266 265 265 264 263 264 263 261 259 258 258 256 255 254 254 253 252 252 253 253 253 253 254 254 254 253 252 251 251 251 251 250 250
267 269 270 270 270 271 270 269 268 268 266 267 267 266 264 263 264 263 262 261 259 258 257 256 254 254 254 253 252 253 254 254 254 254 254 253 252 251 252 252 252 252 251 251
269 270 271 270 271 272 271 270 269 269 268 267 268 269 266 266 266 265 263 262 261 261 260 258 256 254 253 254 253 253 254 254 255 254 254 252 251 252 253 254 254 253 251 251
271 271 272 271 271 272 272 272 270 269 268 268 269 271 269 268 268 269 266 263 262 262 262 260 259 256 255 255 254 253 254 255 255 254 253 252 252 253 255 255 254 254 252 252
272 271 272 272 271 272 273 272 271 269 269 269 270 272 272 271 271 271 269 265 263 262 262 261 260 258 256 255 255 254 254 255 255 254 254 254 254 254 255 255 254 254 253 252
274 272 272 272 271 271 271 271 271 269 269 271 272 273 274 273 272 272 270 267 265 263 262 261 260 258 257 257 256 256 257 256 256 255 256 255 255 256 256 256 256 255 254 254
277 276 274 273 272 271 271 270 270 270 271 272 272 272 275 275 273 273 271 269 267 264 263 261 260 259 259 258 257 257 258 257 256 256 257 257 256 256 257 257 257 256 255 255
278 278 276 274 273 273 272 272 272 272 271 273 274 275 275 275 274 273 272 269 268 265 263 261 261 260 259 259 258 258 258 258 257 257 258 258 258 257 258 258 258 257 257 257
277 278 277 276 273 273 273 274 274 272 272 273 274 275 277 276 276 275 273 271 269 267 265 263 262 261 261 261 260 260 260 258 257 258 259 259 259 259 259 258 258 258 258 258
277 277 278 276 275 274 273 273 273 273 272 273 274 275 277 278 277 276 274 272 270 268 266 265 263 262 262 262 261 261 260 259 260 259 260 260 260 260 260 259 258 259 259 258
278 278 277 277 277 274 272 272 274 274 274 274 275 276 277 277 278 277 275 273 271 270 268 267 265 264 263 262 262 261 260 260 260 260 260 261 261 260 260 259 259 259 259 259
278 279 279 277 276 275 274 273 273 274 275 275 276 278 277 276 278 278 277 275 273 271 271 269 267 265 264 263 263 262 261 261 262 262 261 262 262 262 261 260 260 260 260 259
276 276 278 278 277 276 275 273 273 274 275 276 277 278 277 277 277 277 278 276 275 274 273 271 269 267 265 265 264 263 263 263 263 263 264 263 262 263 263 262 261 260 260 259
275 276 276 275 275 275 274 273 272 273 275 276 278 277 277 277 277 278 278 278 276 276 274 272 270 269 267 266 265 264 262 263 264 264 265 264 263 263 263 263 263 261 261 260
275 275 276 275 275 275 274 273 273 273 274 277 277 276 277 277 278 279 279 279 278 278 276 274 272 271 269 267 266 265 263 263 264 265 265 265 264 263 263 263 263 262 261 260
276 276 276 275 275 275 275 276 276 276 276 277 278 279 277 277 278 281 281 279 279 279 278 277 275 273 271 270 268 266 265 265 264 265 265 266 265 264 263 263 263 263 261 260
275 276 276 277 277 277 279 279 280 279 278 279 279 279 278 279 280 281 282 281 281 280 279 278 276 274 273 272 270 268 267 266 265 265 265 266 265 264 264 264 263 262 262 261
274 276 277 279 279 279 279 281 283 282 281 282 281 280 279 280 280 281 282 282 282 281 279 277 276 275 273 272 271 270 269 267 266 266 267 267 267 265 265 264 264 263 262 262
273 275 277 279 280 280 281 281 283 283 284 285 285 284 282 281 280 281 282 282 283 282 281 278 277 276 275 273 271 271 270 269 268 268 268 269 268 267 266 265 264 263 263 263
274 275 277 278 279 280 281 282 283 284 286 287 287 286 284 282 281 281 281 282 282 282 281 279 277 277 277 274 272 272 272 271 271 270 269 270 270 269 268 266 264 264 263 263
276 277 278 278 278 281 282 282 282 284 284 285 287 287 286 285 283 283 282 282 281 281 281 279 278 277 277 275 273 272 272 272 272 272 271 270 270 270 269 267 265 265 264 264
278 279 278 277 277 279 280 280 281 281 283 285 286 288 288 287 285 285 284 283 282 282 281 280 280 279 278 276 275 274 272 272 273 272 272 271 270 270 270 268 266 265 266 265
278 279 279 278 275 276 277 279 280 282 283 285 286 287 288 288 288 287 286 285 284 284 283 283 282 281 279 277 277 275 273 273 273 272 272 272 271 271 271 270 268 267 266 265
279 279 279 278 277 276 276 278 279 281 283 285 286 288 289 289 289 288 287 286 285 285 285 284 283 282 280 279 278 276 274 273 272 272 271 271 271 272 271 270 269 268 266 265
280 280 280 279 278 278 278 278 279 280 283 284 286 287 289 290 289 288 287 286 286 286 286 285 283 282 280 279 279 278 276 274 272 271 271 271 272 272 272 271 271 269 268 266
Height
5714 5715 5715 5715 5715 5715 5714 5713 5713 5713 5712 5712 5712 5713 5713 5712 5712 5712 5712 5713 5714 5715 5716 5717 5718 5719 5720 5721 5723 5724 5725 5725 5726 5728 5729 5730 5731 5732 5733 5735 5736 5738 5740 5742
5708 5708 5709 5708 5707 5706 5705 5705 5705 5705 5704 5704 5704 5704 5705 5704 5704 5703 5703 5704 5705 5706 5707 5708 5709 5710 5711 5712 5713 5714 5716 5716 5717 5718 5720 5721 5722 5723 5724 5725 5727 5729 5731 5732
5699 5701 5700 5699 5699 5698 5697 5697 5697 5697 5696 5696 5696 5696 5697 5696 5695 5695 5695 5695 5696 5697 5698 5698 5700 5700 5701 5702 5703 5705 5706 5707 5708 5709 5710 5711 5712 5713 5715 5716 5717 5720 5721 5723
5691 5692 5692 5691 5691 5690 5689 5689 5689 5688 5687 5687 5687 5686 5689 5688 5687 5686 5686 5686 5687 5688 5688 5689 5690 5691 5692 5693 5694 5695 5696 5697 5698 5699 5700 5701 5703 5704 5706 5707 5708 5710 5711 5713
5684 5684 5683 5683 5683 5682 5681 5681 5680 5679 5678 5678 5678 5677 5679 5679 5678 5678 5678 5678 5677 5678 5679 5679 5680 5681 5682 5683 5684 5685 5686 5687 5688 5689 5690 5691 5693 5695 5696 5697 5698 5700 5701 5703
5675 5675 5674 5675 5674 5673 5672 5672 5671 5670 5669 5669 5670 5668 5669 5670 5670 5669 5669 5668 5668 5669 5669 5669 5670 5671 5671 5672 5673 5675 5676 5676 5677 5678 5680 5681 5683 5684 5685 5687 5688 5689 5691 5692
5667 5666 5666 5665 5665 5665 5664 5664 5662 5660 5659 5660 5661 5659 5661 5661 5660 5660 5659 5659 5659 5659 5659 5659 5660 5661 5661 5662 5663 5664 5665 5666 5667 5668 5670 5671 5672 5673 5675 5676 5677 5679 5680 5682
5657 5658 5658 5657 5656 5656 5656 5655 5655 5653 5651 5651 5651 5651 5653 5652 5651 5650 5650 5650 5649 5649 5649 5650 5650 5650 5651 5652 5652 5654 5655 5656 5657 5658 5659 5660 5661 5662 5663 5665 5666 5667 5668 5670
5648 5649 5649 5648 5648 5648 5647 5646 5646 5644 5642 5642 5642 5643 5644 5642 5641 5641 5641 5640 5640 5639 5639 5639 5639 5640 5640 5641 5642 5643 5643 5644 5645 5646 5647 5648 5649 5650 5652 5652 5653 5654 5656 5657
5640 5640 5640 5639 5639 5638 5638 5638 5637 5634 5633 5632 5633 5634 5635 5633 5632 5631 5631 5630 5630 5630 5629 5629 5629 5629 5629 5630 5631 5631 5632 5633 5634 5634 5636 5636 5637 5638 5639 5640 5641 5642 5643 5644
5632 5631 5631 5631 5630 5630 5630 5629 5627 5626 5625 5624 5623 5627 5625 5624 5623 5622 5621 5620 5620 5620 5619 5618 5618 5618 5618 5618 5619 5619 5620 5621 5621 5622 5623 5624 5625 5626 5626 5627 5628 5629 5630 5631
5624 5623 5622 5623 5622 5621 5620 5620 5619 5618 5616 5615 5613 5618 5616 5614 5612 5611 5610 5609 5609 5608 5608 5607 5607 5607 5606 5607 5607 5607 5608 5609 5609 5610 5611 5612 5612 5613 5613 5614 5615 5615 5616 5617
5615 5614 5613 5613 5614 5612 5611 5610 5609 5608 5606 5605 5604 5608 5605 5603 5601 5600 5599 5598 5597 5596 5596 5595 5594 5594 5594 5595 5595 5595 5595 5596 5596 5597 5597 5598 5599 5599 5600 5600 5601 5601 5602 5603
5605 5605 5605 5605 5603 5602 5601 5601 5599 5597 5596 5595 5595 5596 5595 5592 5590 5588 5587 5586 5585 5584 5583 5583 5582 5582 5582 5582 5582 5582 5582 5582 5583 5583 5584 5584 5585 5585 5585 5585 5586 5587 5587 5588
5596 5595 5595 5595 5593 5592 5591 5590 5589 5587 5587 5585 5586 5584 5584 5581 5578 5577 5575 5573 5572 5572 5571 5570 5569 5569 5569 5568 5568 5568 5568 5569 5569 5570 5570 5570 5570 5571 5571 5571 5571 5572 5572 5573
5586 5585 5585 5585 5583 5581 5580 5580 5579 5577 5576 5575 5574 5573 5572 5569 5567 5565 5563 5561 5560 5559 5558 5557 5556 5555 5555 5554 5554 5554 5554 5554 5555 5555 5555 5555 5556 5556 5556 5556 5556 5556 5557 5558
5576 5575 5574 5574 5573 5570 5570 5572 5569 5567 5566 5564 5562 5563 5560 5558 5556 5554 5551 5550 5548 5547 5545 5544 5542 5541 5541 5540 5540 5540 5540 5540 5541 5541 5541 5541 5540 5541 5541 5541 5541 5541 5541 5542
5567 5565 5564 5563 5562 5560 5564 5561 5559 5557 5556 5554 5552 5550 5548 5546 5544 5542 5540 5538 5536 5534 5533 5531 5529 5528 5528 5527 5526 5526 5526 5526 5526 5526 5526 5525 5525 5525 5525 5525 5525 5525 5526 5527
5557 5556 5554 5552 5550 5550 5553 5551 5548 5546 5546 5543 5541 5539 5537 5534 5533 5532 5529 5526 5524 5522 5520 5518 5516 5515 5514 5513 5513 5512 5512 5511 5511 5511 5511 5510 5510 5509 5509 5509 5509 5510 5510 5511
5547 5546 5545 5543 5540 5540 5543 5541 5537 5536 5535 5533 5530 5527 5525 5522 5521 5521 5517 5515 5512 5510 5507 5505 5504 5503 5501 5500 5499 5499 5498 5498 5497 5497 5496 5495 5495 5494 5494 5494 5494 5494 5495 5496
5537 5536 5535 5533 5530 5530 5532 5530 5527 5526 5526 5522 5518 5516 5513 5511 5510 5508 5505 5503 5500 5498 5495 5493 5491 5490 5488 5487 5486 5486 5485 5484 5483 5482 5482 5481 5480 5479 5479 5479 5479 5479 5480 5480
5527 5526 5524 5522 5520 5523 5521 5518 5517 5515 5513 5510 5507 5505 5503 5500 5498 5495 5493 5490 5488 5486 5483 5481 5479 5477 5475 5474 5473 5472 5471 5470 5470 5469 5467 5466 5465 5464 5464 5463 5463 5463 5463 5464
5517 5516 5514 5513 5514 5511 5509 5507 5506 5504 5502 5499 5497 5495 5492 5489 5487 5484 5481 5478 5476 5474 5471 5469 5467 5465 5463 5461 5460 5459 5458 5456 5456 5455 5453 5452 5451 5450 5449 5448 5448 5447 5447 5447
5506 5504 5502 5502 5502 5500 5498 5496 5494 5493 5490 5488 5486 5484 5481 5478 5475 5472 5469 5467 5464 5462 5459 5457 5454 5452 5450 5447 5446 5445 5443 5442 5442 5441 5440 5438 5437 5436 5435 5433 5432 5432 5432 5432
5495 5493 5491 5490 5490 5488 5487 5485 5483 5481 5479 5477 5475 5472 5469 5466 5463 5460 5457 5455 5452 5449 5447 5444 5442 5439 5437 5435 5433 5431 5430 5429 5428 5426 5425 5424 5423 5421 5420 5419 5417 5417 5416 5416
5484 5482 5480 5480 5479 5477 5476 5474 5472 5470 5468 5466 5464 5461 5458 5454 5451 5448 5445 5442 5440 5437 5434 5432 5429 5427 5424 5422 5420 5418 5417 5415 5414 5413 5412 5410 5409 5407 5406 5404 5403 5401 5401 5400